Location: Newark
(45.2500°N, 7.5833°E)
Time: 01:17:35
(UTC+00:00)

BEESAT 2 - Pass Details

Date: 25 February 2020
Orbit: 494 x 533 km, 64.9° (Epoch: 28 March)

Event Time Altitude Azimuth Distance (km) Brightness Sun altitude
Rises 17:48:36 0° 336° (NNW) 2,687 ? -7.5°
Reaches altitude 10° 17:52:29 10° 14° (NNE) 1,795 ? -8.1°
Maximum altitude 17:53:36 11° 30° (NNE) 1,734 ? -8.3°
Drops below altitude 10° 17:54:43 10° 46° (NE) 1,793 ? -8.5°
Enters shadow 17:55:34 - 57° (ENE) 1,913 ? -8.7°
